Find Starlink 31093

NORAD ID: 58717 Int'l Des: 2024-002 Owner: SPXS Country: US Constellation: starlink operational
LEOCIRCULAR

現在のビュー

3D地球を読み込み中...

About Starlink 31093

Starlink 31093 (NORAD 58717) is a starlink constellation satellite (v2 mini) launched Jan 3, 2024 by SPXS of US. It operates in LEO, CIRCULAR orbit with a mass of 730.00 kg.

次回通過

Passes for default location (London). Set your location on the main map for personalized predictions.

高度履歴

Loading altitude history...

軌道要素

1 58717U 24002N 26265.64542439 .00000183 00000-0 16553-4 0 9990
2 58717 53.1620 33.4470 0001103 71.2268 288.8855 15.34396506152193
Epoch: Sep 22, 2026 • Age: 9 hours

現在のステータス

高度 466.4 km
遠地点 / 近地点 N/A
速度 7.63 km/s
衛星直下点 -12.05°S, 143.24°W
打ち上げ日 Jan 3, 2024
運用期間 2.7 years
タイプ internet

技術仕様

分類 Payload
質量 730.00 kg
乾燥質量 700.00 kg
長さ 0.30 m
スパン 29.00 m
形状 ? Box + pan
製造者 SPXS
バスタイプ Starlink V2M
フェーズステータス In Orbit
所有者/国 SPXS/US

Most Searched